timestamp,x,y,z,uncertainty,rpm
2019-09-29/13:08:35,-0.9583958,0.27339556,0.082050887,0.24622573,20.541033
2019-10-01/01:53:36,-0.94674718,0.31539735,0.064763307,0.15986825,20.515262
2019-10-02/01:01:07,-0.92205102,0.38145597,0.065675399,0.34075192,20.473605
2019-10-03/00:46:04,-0.90232954,0.43067035,-0.018012338,0.35779104,20.374199
2019-10-04/01:08:34,-0.87409247,0.48537549,0.019312824,0.30014149,20.317103
2019-10-07/23:16:03,-0.76385568,0.64504532,0.021000834,0.30496486,20.14604
2019-10-08/23:16:04,-0.67872744,0.73408688,0.02110732,0.24917102,20.114648
2019-10-09/00:38:35,-0.67852143,0.73372283,0.035489175,0.29957983,20.046062
2019-10-10/01:01:05,-0.59944625,0.79810427,0.060776408,0.29266843,20.03521
2019-10-11/01:08:32,-0.59284458,0.80447351,0.036846639,0.23516357,19.937244
2019-10-11/01:53:33,-0.62898724,0.77624804,0.042591365,0.26789782,19.937244
2019-10-13/01:38:36,-0.4212526,0.90581741,0.04517823,0.36531623,19.830707
2019-10-14/00:23:34,-0.4852011,0.87339191,0.042029402,0.38926327,19.821296
2019-10-15/01:01:05,-0.3775788,0.9253499,0.034085475,0.57062251,19.739666
2019-10-16/00:46:03,-0.30066163,0.95036562,0.080048502,0.57124476,19.713742
2019-10-17/00:46:02,-0.27205237,0.95572944,0.11211038,0.41476966,19.616806
2019-10-18/23:23:35,-0.1590505,0.98341505,0.08716525,0.64248729,19.543514
2019-10-19/00:46:04,-0.14207474,0.98798972,0.060754333,0.67157001,19.554356
2019-10-20/00:53:34,-0.067585596,0.98775395,0.14062117,0.44971201,19.477405
2019-10-21/00:31:04,-0.11421319,0.97986782,0.16375103,0.54434564,19.425487
2019-10-22/00:31:04,-0.030520335,0.99163876,0.12538369,0.62475492,19.423149
2019-10-23/01:08:32,0.056661207,0.98293877,0.17498823,0.33258911,19.374665
2019-10-24/00:53:35,0.13255667,0.97066428,0.20059807,0.50579932,19.313542
2019-10-25/00:38:32,0.13297555,0.96965927,0.20513022,0.44255973,19.261986
2019-10-26/00:53:33,0.1976096,0.9595946,0.20032136,0.49978462,19.265888
2019-10-30/23:08:33,0.4655422,0.85515394,0.22799606,0.42522575,19.02147
2019-10-31/00:16:03,0.4793757,0.85436273,0.20065709,0.49442861,19.058209
2019-11-01/00:53:34,0.47937726,0.85281248,0.20714324,0.30314036,18.979397
2019-11-02/00:38:31,0.62606337,0.7587025,0.18004216,0.258853,18.937186
2019-11-07/01:08:35,0.77243561,0.63072181,0.074385588,0.25057654,18.776517
2019-11-17/04:08:32,0.96869653,0.16974495,-0.18114549,0.49957653,18.267364
2019-11-18/03:46:04,0.98240428,0.059524861,-0.17702715,0.4915277,20.340868
2019-12-03/15:38:34,0.55886136,-0.82308387,-0.10102933,0.21730463,20.71358
2019-12-07/11:46:08,0.39777781,-0.91591744,0.053554345,0.22919655,20.509003
2019-12-09/10:46:06,0.33179371,-0.94275641,0.033515373,0.50813876,20.481715
2019-12-15/11:08:32,0.029729398,-0.98128093,0.19027324,0.20861029,20.249529
2019-12-17/11:23:36,-0.12206237,-0.96504005,0.23194499,0.18427325,20.140449
2019-12-19/11:46:04,-0.13609309,-0.96030027,0.24352015,0.20879208,21.163356
2019-12-24/09:31:04,-0.42263614,-0.87212819,0.24651797,0.29610194,21.034435
2019-12-27/21:31:02,-0.60232232,-0.76341492,0.23324984,0.17984918,20.853609
2020-01-02/21:46:05,-0.81022676,-0.56949486,0.13859367,0.19906876,20.643021
2020-01-07/09:38:34,-0.93273737,-0.35983125,0.022857671,0.4645523,20.399069
2020-01-11/05:12:00,-0.9905893,-0.10678756,0.085611078,0.27391212,20.131647
2020-01-17/17:12:01,-0.98433122,0.17200278,0.038821174,0.31187821,23.195337
2020-01-18/17:13:01,-0.95867656,0.2767578,0.065911922,0.1528985,23.193984
2020-01-21/16:42:17,-0.90926308,0.41052586,0.068623377,0.21201035,22.971887
2020-01-24/14:42:00,-0.85831202,0.50438977,0.094294384,0.29490623,22.794796
2020-01-26/16:57:01,-0.78241436,0.60475826,0.14864458,0.13373022,22.701729
2020-01-29/16:12:00,-0.69345092,0.69867246,0.17601881,0.26229666,22.502189
2020-02-02/04:24:30,-0.6286449,0.77768147,-0.0041382793,0.26816061,22.335835
2020-02-05/15:12:01,-0.40995647,0.87810807,0.24670207,0.39250064,22.187765
2020-02-07/15:12:01,-0.35045584,0.90867995,0.22689525,0.36337714,22.110309
2020-02-16/16:44:29,0.12448428,0.98322825,0.1332887,0.20209248,21.731198
2020-02-20/06:12:02,0.29796081,0.95160126,0.075328607,0.56765485,21.563555
2020-02-27/05:11:59,0.572133642091482,0.813037631859146,-0.10785594451864,0.255756286233638,21.2086860379411
2020-03-01/07:03:29,0.709848926383599,0.675427646588746,-0.199779868694621,0.223177715032022,22.6009768387472
2020-03-03/19:17:58,0.815555575781927,0.521274760304318,-0.251280176457845,0.252063401993627,22.4082117436147
2020-03-04/04:47:00,0.782842665091287,0.555781103447941,-0.27975833636008,0.203065394096629,21.4876815195646
2020-03-05/14:45:38,0.863115819772801,0.466370090053695,-0.193726665075393,0.228124583915671,21.3937299055509
2020-03-09/03:03:43,0.862685350749978,0.453392244643018,-0.224074670810766,0.270451570333531,21.1915511214757
2020-03-10/08:09:36,0.95233020638747,0.219949024281331,-0.211399159694852,0.180334142692238,21.1332482808993
2020-03-12/05:45:31,0.978548667790502,0.117006364637525,-0.169564192563597,0.197061310401354,20.9961198994431
2020-03-19/06:12:00,0.96469129441401,-0.261265891544202,-0.0333292723808361,0.164069892436605,20.624921856481
2020-03-21/14:41:30,0.923609900497481,-0.38068769849184,0.0449625168336847,0.110846803320361,21.4487612768422
2020-03-23/02:11:30,0.892153125810637,-0.446021235385654,0.0716090615171373,0.157486416714515,21.3726043983907
2020-03-24/06:12:01,0.864232898669098,-0.493345076301547,0.0985501524454943,0.144625624020504,21.3290693070105
2020-03-28/13:42:01,0.7245668694802909,-0.6651170986658456,0.18061588167672044,0.12552677248578234,21.207146384471855
2020-04-04/06:11:31,0.44433750778338,-0.858474432227569,0.256097302579329,0.130003414687246,21.0235350460082
2020-04-07/06:12:00,0.308688711342145,-0.916281868703304,0.255223072184916,0.280060365945124,20.9586658232348
2020-04-09/06:12:01,0.18868388710601,-0.95339267560198,0.235458694583707,0.237925412059386,21.3053305697436
2020-04-11/06:12:01,0.0980045561331363,-0.970193643493094,0.221628971713405,0.340542080644809,21.2238510872163
2020-04-16/06:11:30,-0.136846902545111,-0.978081719142445,0.156936534762202,0.322898698453281,20.9852472347111
2020-04-18/06:12:00,-0.265369854795204,-0.956016940821361,0.124941782557073,0.215730231650894,20.8809435625185
2020-04-25/06:04:13,-0.56299462,-0.82493329,0.05022078,0.3348819,21.217319
2020-04-28/06:06:10,-0.621917701664142,-0.782837271474058,0.0196004782554916,0.481567789631432,21.0427303555416
2020-04-30/06:11:31,-0.790575736029989,-0.611711784088632,0.0282612598400128,0.219765389193698,20.9105657773466
2020-05-03/06:12:03,-0.87964857,-0.47217315,0.057191775,0.39215542,21.553069
2020-05-07/06:12:01,-0.945948848715447,-0.307331738014368,0.103575954849515,0.623929074382747,21.3011687586144
2020-05-16/06:11:30,-0.96772973460505,0.135914452381768,0.212194303399042,0.335459138334388,20.8553473072278
2020-05-18/06:12:15,-0.945414800687532,0.231146816234781,0.229699812767617,0.234898928212777,21.1390782237195
2020-05-19/06:11:30,-0.926721719332241,0.291710006700779,0.236837764954253,0.236152604172497,21.4386589199507
2020-05-21/06:12:30,-0.906705699232195,0.350678604419706,0.234327316764615,0.723769912602906,21.3778354758716
2020-05-23/06:20:23,-0.917133817472034,0.31564368643875,0.243381642817469,0.463424063702404,21.2932493444974
2020-05-25/06:11:30,-0.818537898489739,0.510096003473215,0.264192687212678,1.57742395795632,21.2357752982357
2020-05-27/06:11:30,-0.713593829496484,0.673329230711503,0.193420768207551,0.433670163195349,21.1271264671585
2020-05-31/06:11:31,-0.573038443511565,0.806785012029595,0.143961406711134,0.453386645876364,21.5673767977525
2020-06-02/04:12:00,-0.488819606279235,0.866382858515572,0.102157402998512,0.12057314030348,21.488775176282
2020-06-04/05:16:22,-0.401549172789621,0.913186409052045,0.0696336424051102,0.403171282548513,21.4369628944093
2020-06-12/06:12:11,-0.0215139338137327,0.989680623352985,-0.141666560668015,0.227588678533962,21.134662743953
2020-06-14/06:31:20,0.090167559031883,0.977629722603359,-0.19002614762372,0.182617607146645,21.027012222253
2020-06-26/06:54:02,0.671131861152839,0.734257230216261,-0.102217145433976,0.138706193389674,21.1430353606717
2020-06-28/07:13:13,0.779555989682288,0.62192598022489,-0.0741655854947484,0.128967245492491,21.0386501756275
2020-06-30/06:26:59,0.864605173436357,0.500326748857515,-0.0461631719529314,0.228450462013973,20.9173250031181
2020-07-02/06:18:18,0.901513755999104,0.432719459344843,0.00517853731229484,0.123578824659337,21.5192480493949
2020-07-04/06:37:27,0.938541092703477,0.340379319729154,0.0572934202826265,0.126606216957488,21.4316326010768
2020-07-08/06:12:02,0.977410917049844,0.154005489319196,0.144741868480884,0.71618416087617,21.2431919326684
2020-07-10/07:35:25,0.977197517868709,0.0302940514639209,0.210160133034633,0.112271635722305,21.1842007222761
2020-07-12/06:21:18,0.972483988715776,-0.0696998710389498,0.22229894212211,0.125814645473275,21.1155241340479
2020-07-14/06:40:26,0.952202650730584,-0.173748668556196,0.251239949284739,0.11951273019467,21.0447094665738
2020-07-16/06:04:31,0.91611316966343,-0.28489671067443,0.282082478392605,0.818945650631901,20.9750116944867
2020-07-18/07:19:13,0.90981914247978,-0.266363982743685,0.318244177753937,0.103762098495293,21.4092418804044
2020-07-20/06:12:00,0.848823253872516,-0.449264264170525,0.278676702694343,0.163653317749292,21.3568789136582
2020-07-24/06:43:19,0.7159654142983,-0.655420320491466,0.240453174267936,0.104766403932167,21.1962348726004
2020-07-26/07:02:27,0.644133623812441,-0.736357739427865,0.207048676061784,0.113769048737906,21.1123276846236
2020-07-28/07:22:03,0.564534301422711,-0.806852337792807,0.174041166151731,0.124136524581809,21.0210910957943
2020-07-30/06:40:08,0.512739442434882,-0.844513952851307,0.15457828958501,0.350036427642565,21.3028666836302
2020-08-01/06:26:28,0.401029543565817,-0.909390762193765,0.110380010980407,0.115889280896553,21.2210014056051
2020-08-03/06:46:03,0.294735415223005,-0.952696429042532,0.0741656868297644,0.128909673130338,21.1063992075577
2020-08-05/07:05:07,0.184007628055517,-0.98240251258406,0.0320389776039901,0.140155384262802,20.9843357972167
2020-08-07/07:24:11,0.103610356087031,-0.994359588788594,0.0226694132190577,0.143059395654172,20.8605948245052
2020-08-09/06:12:01,0.030495353,-0.99604204,0.083488277,0.13681253,21.214133
2020-08-11/06:28:59,-0.107086323292313,-0.989946632869141,0.0924022912853626,0.138916418238151,21.0740961772815
2020-08-19/06:12:00,-0.47635324,-0.87114638,0.11912836,0.13215013,20.998357
2020-08-23/06:12:00,-0.63137871,-0.75495672,0.17720406,0.42334725,21.896997
2020-08-25/06:12:01,-0.69004365,-0.69978448,0.184774,0.27132405,21.789166
2020-08-27/06:28:17,-0.75278797,-0.62613644,0.20313402,0.16931123,21.523004
2020-08-29/06:47:16,-0.801248049320833,-0.552557346371359,0.229525472291424,0.13544277,21.4343735217215
2020-08-31/07:06:14,-0.850623524864688,-0.464004154265807,0.247264562302904,0.13434077,21.3514312674185
2020-09-02/06:12:01,-0.89220422,-0.37254685,0.25530467,0.1403556,21.271211
2020-09-04/07:09:18,-0.92629581,-0.27577006,0.25676243,0.072078765,21.229866
2020-09-06/01:13:59,-0.94789114,-0.18868719,0.25670905,0.080297122,21.178393
2020-09-08/01:32:42,-0.965867680060184,-0.0838645510958241,0.245084397064877,0.077132904,21.0646018472123
2020-09-10/00:17:51,-0.975751821646627,0.029436559242505,0.216891381878699,0.0739876643020171,21.4306656564011
2020-09-12/06:12:01,-0.974826354054904,0.134233102748474,0.178031046636646,0.123733959179426,21.2912789414614
2020-09-14/06:11:59,-0.965135901974918,0.233060139649804,0.119145549751033,0.119210112683172,21.200732060467
2020-09-15/07:06:59,-0.954855220171547,0.278386510101463,0.103694066873063,0.115740744755823,21.1976200150081
2020-09-16/06:29:34,-0.941522744960168,0.327833137589159,0.0778482795000469,0.126638128714867,21.1622683554212
2020-09-18/07:46:34,-0.913057097221572,0.405726913603424,0.0413812613528855,0.0955510782662207,21.0933920384986
2020-09-19/06:12:00,-0.887071299202932,0.461587922086826,0.006410952658344,0.14658781847894,21.0298361291581
2020-09-20/06:31:32,-0.868086839217113,0.49637619817224,-0.00599245076044073,0.101095401451718,21.2751608799055
2020-09-21/06:29:23,-0.835295105634674,0.547440282810356,-0.0509040593595153,0.120873580760026,21.2072681130503
2020-09-23/06:48:08,-0.772314091547542,0.62760614047859,-0.0981910201121452,0.148413158018441,21.1114218911863
2020-09-25/07:01:28,-0.672761241165301,0.723476920153154,-0.154833647478286,0.159987686254043,21.0214714235584
2020-09-26/06:29:04,-0.66298784983376,0.726688552802217,-0.179919032342403,0.136542992608491,20.9599635117611
2020-10-02/06:10:35,-0.34621806228348,0.91910045842335,-0.188115391913209,0.463379087974225,20.9923194021886
2020-10-03/06:46:34,-0.27901858036345,0.949578553628809,-0.14300070734155,0.444722736308108,20.9686971957688
2020-10-04/07:07:01,-0.269481552145083,0.951567202545034,-0.147984972527942,0.165173939778498,21.4010215001672
2020-10-07/06:12:01,-0.0716867447956299,0.982779239893795,-0.170311409642399,0.417946918155796,21.1991278149213
2020-10-08/06:45:39,0.0104253746544699,0.98644792234141,-0.163743116104556,0.432871644733352,21.1507334899196
2020-10-09/06:12:01,0.119419610756564,0.973702672915345,-0.194015621340816,0.379377784870879,21.1054394672798
2020-10-12/06:12:00,0.202847792623338,0.975544012089778,-0.0846560895837877,0.366091908827612,21.1450959461812
2020-10-13/06:44:26,0.293506954326698,0.95452390820536,-0.0523237654056952,0.381034912891239,21.1218550672481
2020-10-14/06:12:00,0.345337794285076,0.937659577420194,-0.0391959782439631,0.368638784805252,21.0642613823669
2020-10-17/06:12:00,0.458392387058632,0.887827298185925,0.0404858997994359,0.278726773662873,21.1292061476253
2020-10-18/06:12:01,0.505924341170669,0.859992573469429,0.0667333094372877,0.120839342822566,21.1361746870922
2020-10-19/06:06:57,0.552810838938158,0.828811030007746,0.0864433507563761,0.331428994170809,21.0684514682308
2020-10-20/07:01:04,0.593559192897932,0.79400999038085,0.131284499091694,0.273483797001219,21.0332528827969
2020-10-21/06:15:23,0.558876304783491,0.823852381316084,0.094469729285992,0.33664909943426,21.2294311369069
2020-10-22/06:11:59,0.656604578292256,0.740531013764412,0.143123182673878,0.155877850994435,21.1401037156491
2020-10-23/06:12:03,0.691323580387557,0.700484445484241,0.177181400927873,0.110847297569398,21.1445337663161
2020-10-27/06:12:01,0.801670161153897,0.554840561805752,0.222434043461342,0.132842437331747,21.2432405525861
2020-10-28/06:04:48,0.830419366608649,0.50197574441256,0.241710627781954,0.128390987404015,21.2855997538886
2020-10-30/06:57:10,0.878771521910661,0.399293053768499,0.261391793082811,0.187346761701752,21.1530394106736
2020-10-31/06:19:19,0.896809738966997,0.352996321450895,0.266694374024055,0.205205774239145,21.124487027939
2020-11-02/06:11:13,0.933391979231727,0.259932900708672,0.247415238485941,0.125414091296099,21.1208819330706
2020-11-03/06:12:13,0.944187703073226,0.216592264955736,0.248188178861624,0.36979614174501,21.0262285682791
2020-11-05/06:16:48,0.96193614539684,0.110322327219367,0.250015672100716,0.346623069544815,21.1870773934161
2020-11-06/07:12:19,0.967851804222687,0.0606683560523183,0.244094726769748,0.394466190857229,21.1394481318912
2020-11-09/06:51:59,0.981878165483285,-0.0856689046347972,0.169044689138268,0.460516213532841,21.3786757373764
2020-11-10/06:14:04,0.975630047502525,-0.122376846373512,0.182126104339533,0.47804794357357,21.3330715663445
2020-11-11/07:09:30,0.968263770700004,-0.193856960982713,0.157749006425894,0.48711180448766,21.2774538270699
2020-11-12/06:31:31,0.956728994886477,-0.238202736928575,0.167119976254328,0.494243554037327,21.2215673428913
2020-11-13/06:12:01,0.942405543626486,-0.301434890333347,0.144944121066674,0.516759240185163,21.162975499197
2020-11-14/10:12:00,0.926007451487114,-0.36059988308955,0.111704628848325,0.73028816668636,21.0876136800721
2020-11-15/10:51:17,0.885068018868956,-0.454320690899511,0.10122900669261,0.600308160960718,21.0256236778714
2020-11-16/07:06:20,0.904023694650807,-0.416982549256539,0.0941632259718283,0.532079819397403,20.9768687313763
2020-11-17/06:28:17,0.882462426532081,-0.460678246901052,0.0950558708933074,0.551703379740725,20.9076423263484
2020-11-19/10:50:40,0.806856792173497,-0.587622754009286,0.0606763207028523,0.159793283895304,21.4568595064754
2020-11-21/11:08:00,0.738623628923771,-0.672188778651065,0.0509645038342399,0.154850956523797,21.3125920397212
2020-11-23/11:25:16,0.668141908787478,-0.743085012385034,0.0375639999275803,0.144854407807182,21.1676371000013
2020-11-25/10:12:01,0.618466437510661,-0.783786755363115,0.0563700965959071,0.154462336881547,21.0412722236836
2020-11-27/11:01:20,0.50699296,-0.86135228,0.032099652,0.1780736,21.166415
2020-11-28/11:21:31,0.433030458545605,-0.899657932169543,0.055679682615878,0.145394638088939,21.1447107448041
2020-12-02/10:22:11,0.239607345737861,-0.965643246854438,0.100605366024263,0.116187148400856,20.9194446464676
2020-12-03/11:17:23,0.192384596059096,-0.973836637094604,0.120956072404201,0.289145469484528,21.2990031230674
2020-12-05/11:34:17,0.0876564249775003,-0.98495381195649,0.148937367616539,0.105712217944277,21.1986383368571
2020-12-07/10:52:07,-0.0239494414858325,-0.985634516554207,0.16718559755395,0.153298012123671,21.0647758778952
2020-12-08/11:12:35,-0.0684721303685334,-0.979081810447636,0.191599519345364,0.0995242706872418,21.055428058925
2020-12-09/10:34:13,-0.111300642592778,-0.972360107770574,0.205251035989666,0.100312050835408,21.4191772928853
2020-12-10/11:37:16,-0.174577227208062,-0.958617583767065,0.224889127867354,0.11035190836863,21.392140940274
2020-12-12/10:07:33,-0.258618211342026,-0.938111208880104,0.230356203597303,0.134319880456839,21.2849458751698
2020-12-15/11:24:04,-0.407874482450256,-0.876469406293675,0.255812013785807,0.0943333558289562,21.1930980338044
2020-12-18/10:12:00,-0.549935896176538,-0.801849274137233,0.233684085170772,0.120390859026317,21.3438374727262
2020-12-19/10:16:11,-0.603271803390235,-0.76075246660947,0.239413482874087,0.166002694079931,21.3348415180036
2020-12-22/11:27:10,-0.749211347041519,-0.628289733376444,0.209605268058772,0.156749218870028,21.2346876368679
2020-12-23/10:12:01,-0.74862542,-0.63573967,0.18813573,0.12187198,21.345434
2020-12-24/10:44:26,-0.77383912160203,-0.606518099128523,0.182507011667285,0.285107362248549,21.3351115196758
2020-12-26/10:30:02,-0.843552977003693,-0.517332167307042,0.144172825655894,0.160398825820384,21.2930532776499
2020-12-27/11:21:22,-0.88557786700572,-0.450425817744209,0.113439076949081,0.164169968613004,21.2617428723535
2020-12-29/10:08:38,-0.922265401459779,-0.379514670656538,0.0734516441387973,0.113162313399396,21.4592500661295
2020-12-31/10:21:46,-0.959800578231449,-0.279780349179247,0.0224901364983644,0.140242545798953,21.3963433261971
2021-01-02/10:11:55,-0.97808697,-0.20599573,-0.030193191,0.69541279,21.288242
2021-01-03/08:32:28,-0.989288772410829,-0.136333700712496,-0.052161737240157,0.10820408,21.3003981399835
2021-01-04/09:27:14,-0.993715159066727,-0.0839046578015943,-0.0740958233653295,0.12243271,21.2626729794755
2021-01-05/08:12:00,-0.99319881211642,-0.0186535440913202,-0.114926780618645,0.56207074,21.1766873295181
2021-01-06/08:04:04,-0.988677359166862,0.0295523067190027,-0.147118117981527,0.16583965,21.4753290398111
2021-01-07/08:12:01,-0.98395446,0.085229752,-0.15674667,0.44136708,21.404846
2021-01-08/08:25:44,-0.978614650606355,0.122967121280976,-0.164901342330717,0.11975229,21.3881767379766
2021-01-09/09:20:30,-0.968472358247335,0.16491782771409,-0.186717437356323,0.12274607,21.3395408598488
2021-01-10/08:12:00,-0.94633334,0.24799883,-0.20724331,0.59366786,21.525699
2021-01-11/09:36:45,-0.937469390499366,0.247305883401015,-0.244930483835703,0.127141455431375,21.5132653067372
2021-01-18/08:12:37,-0.758468043093394,0.62259036134251,-0.192632991902946,0.30923925,21.3868998057161
2021-01-20/08:28:30,-0.67290132,0.71888043,-0.17439821,0.1604141,21.269651
2021-01-21/08:18:10,-0.61926418,0.77191541,-0.14373056,0.23700395,21.182873
2021-01-22/08:12:01,-0.55364413,0.82243524,-0.13068451,0.36993693,21.103673
2021-01-23/08:33:32,-0.55258458,0.82657164,-0.10690934,0.22519083,21.070241
2021-01-24/08:12:01,-0.48993086,0.86866884,-0.073363532,0.43843669,21.267959
2021-01-25/08:21:45,-0.43223608,0.89976123,-0.060014155,0.15421209,21.250672
2021-01-26/06:36:29,-0.42219789,0.90590695,-0.032886822,0.22806662,21.168179
2021-01-27/06:12:02,-0.31259326,0.94971556,0.01805036,0.38381955,21.396098
2021-01-28/06:25:36,-0.29255705,0.95623266,0.0054296978,0.15734506,21.378209
2021-01-29/06:12:34,-0.28548773,0.95747495,0.041695119,0.28181496,21.293869
2021-01-30/06:12:02,-0.19369278,0.97835505,0.072831979,0.31532378,21.229622
2021-01-31/06:27:31,-0.1934522,0.97688318,0.090969757,0.32848968,21.191678
2021-02-01/06:12:01,-0.061581944,0.98718386,0.14722666,0.80081639,21.13727
2021-02-03/07:36:10,-0.042048321,0.98600911,0.16130087,0.39400492,21.31131
2021-02-04/06:57:41,-0.0065802763,0.98321996,0.18230525,0.39272839,21.264039
2021-02-05/06:17:51,0.016548727,0.98121849,0.19218848,0.43955609,21.229106
2021-02-08/07:26:26,0.26012606,0.93657866,0.23485071,0.25177566,21.141815
2021-02-09/06:46:58,0.29899342,0.92326218,0.24122577,0.24733287,21.102073
2021-02-15/07:28:33,0.57047627,0.78642664,0.23683322,0.27344764,21.340065
2021-02-16/06:12:01,0.6003683,0.76308659,0.23928386,0.25672801,21.288968
2021-02-18/06:12:02,0.6930452,0.68988295,0.2091647,0.14833587,21.208724
2021-02-19/00:12:01,0.72648438,0.65687809,0.20182076,0.13397462,21.176345
2021-02-20/06:12:02,0.76763973,0.61443,0.18222245,0.25002661,21.114662
2021-02-21/06:12:01,0.80281811,0.57220156,0.16753645,0.13694354,21.330776
2021-02-22/06:12:01,0.82653155,0.54098639,0.15549699,0.13487313,21.284197
2021-02-23/00:12:01,0.85272946,0.50250167,0.1426343,0.14824361,21.250714
2021-02-24/06:12:02,0.88262757,0.45200788,0.12906371,0.13380043,21.20525
2021-02-25/06:12:02,0.90753605,0.40624055,0.106522,0.1854181,21.149163
2021-02-26/06:12:02,0.92848207,0.35631622,0.10468903,0.22622748,21.104388
2021-03-06/06:12:03,0.99825685,-0.047411937,0.035147837,0.14330959,20.92228
2021-03-07/06:12:01,0.99648527,-0.081221099,0.020499741,0.13723594,21.155456
2021-03-08/06:12:02,0.99336753,-0.11374726,0.016807834,0.14668097,21.09859
2021-03-10/00:12:03,0.97621566,-0.21653531,0.010744178,0.15895127,20.993979
2021-03-12/06:11:59,0.92868028,-0.36680678,0.05482439,0.14653755,21.139591
2021-03-14/06:12:02,0.87828496,-0.47130119,0.080564974,0.26660094,21.035578
2021-03-17/06:12:02,0.79100568,-0.59975634,0.12084018,0.11550791,21.432036
2021-03-19/06:12:01,0.72792151,-0.66879392,0.15114551,0.15236114,21.339395
2021-03-21/06:12:02,0.65040094,-0.73837911,0.1782552,0.14264067,21.261035
2021-03-23/22:12:01,0.54255958,-0.8152249,0.20257707,0.13990788,21.148939
2021-03-24/06:12:00,0.51478393,-0.83014148,0.2141556,0.10791455,21.372685
2021-03-26/06:12:01,0.42924848,-0.87286852,0.23204802,0.13507456,21.301383
2021-03-27/06:12:02,0.38785094,-0.89110056,0.23560867,0.14514094,21.268384
2021-03-28/00:12:02,0.34833727,-0.9063193,0.23926237,0.13038339,21.242522
2021-03-29/06:12:01,0.28046598,-0.92732058,0.24782124,0.14376225,21.202477
2021-03-31/06:12:02,0.1817097,-0.95167195,0.24759258,0.1688522,21.132058
2021-04-01/06:12:03,0.13014557,-0.96173685,0.24108996,0.2129967,21.080885
2021-04-02/06:12:01,0.10257418,-0.96516405,0.24070085,0.30379716,21.208754
2021-04-03/06:12:03,0.035827956,-0.97266783,0.22942024,0.32694793,21.141464
2021-04-04/06:11:05,-0.012338645,-0.97575074,0.21853662,0.2784656,21.111203
2021-04-12/08:09:58,-0.4157392,-0.90725044,0.063698993,0.46988092,21.37112
2021-04-18/08:56:07,-0.69303398,-0.71628382,-0.081494706,0.29175021,21.113279
2021-04-21/09:34:51,-0.78289739,-0.60024673,-0.16363232,0.19181973,21.206245
2021-04-24/08:33:42,-0.86468176,-0.45758577,-0.20722143,0.15167472,21.04729
2021-04-28/09:04:21,-0.93184197,-0.16966587,-0.32075541,0.33223879,21.040864
2021-05-03/08:51:52,-0.98147195,0.047996053,-0.18549715,0.40496372,20.918821